Regional Weather Roundup
Issued by NWS

Home | Current Version | Previous Version | Text Only | Print | Product List | Glossary Off
Versions: 1 2 3 4 5 6 7 8 9 10 11 12 13 14 15 16 17 18 19 20 21 22 23 24 25 26 27 28 29 30 31 32 33 34 35 36 37 38 39 40 41 42 43 44 45 46 47 48 49 50

000
ASUS45 KSLC 042210
RWRUT

UTAH REGIONAL WEATHER ROUNDUP
NATIONAL WEATHER SERVICE SALT LAKE CITY UT
400 PM MDT FRI SEP 04 2015

UTZ001>011-023>025-042300-

NORTHERN UTAH

CITY           SKY/WX    TMP DP  RH WIND       PRES   REMARKS
BRIGHAM CITY   MOSUNNY   87  27  11 SW18G29   29.75F
HILL AFB       MOSUNNY   84  37  19 S20G28    29.78F
LOGAN          SUNNY     85  35  16 SW21G33   29.76F
OGDEN          MOSUNNY   87  35  15 SW17G32   29.75F
PROVO AIRPORT  MOSUNNY   82  43  24 S17       29.79F
SALT LAKE CITY MOSUNNY   87  34  15 S18G32    29.74F
VERNAL         MOSUNNY   82  43  25 SW15G22   29.90F
WENDOVER       SUNNY     88  27  11 SW22G32   29.69F
HEBER CITY     MOSUNNY   82  32  16 SW25      29.84F
WEST JORDAN    MOSUNNY   86  37  17 SE30G37   29.77F

$$

UTZ012>022-026-027-042300-

SOUTHERN/CENTRAL UTAH

CITY           SKY/WX    TMP DP  RH WIND       PRES   REMARKS
BLANDING       MOSUNNY   73  51  46 SE3       30.12F
BRYCE CANYON   MOSUNNY   71  38  29 S18G24    30.11F
CEDAR CITY     PTSUNNY   80  38  22 SW26G37   29.93F
DELTA          SUNNY     85  33  15 SW26G37   29.82F
HANKSVILLE     MOSUNNY   86  39  19 SW14G25   29.89F
MILFORD        PTSUNNY   83  38  20 S25G38    29.85F
MOAB/CYNLANDS  MOSUNNY   83  47  28 SE23G30   29.88F
PRICE          PTSUNNY   78  40  25 S18G33    29.92F
ST GEORGE      PTCLDY    93  45  18 SW21G29   29.79F
KANAB          MOSUNNY   81  48  32 SE8G17    29.98F

$$

REGIONAL REPORTS     COLORADO/ARIZONA

CITY           SKY/WX    TMP DP  RH WIND       PRES   REMARKS
CRAIG, CO      CLOUDY    75  42  30 SW18G25   30.03F
GRAND JUNCTION LGT RAIN  64  57  78 E7        30.00R
RIFLE          CLOUDY    70  51  51 E16       30.02F
MONTROSE       PTSUNNY   73  50  44 S10       30.05F
CORTEZ         PTSUNNY   77  52  41 CALM      30.05F
PAGE, AZ       MOSUNNY   87  38  17 SW9       29.88F
GRAND CANYON   MOSUNNY   75  42  30 SW13G25   30.09F
KINGMAN        SUNNY     89  42  19 SW25G36   29.89F
FLAGSTAFF      PTSUNNY   68  48  48 SW16      30.16F

$$

REGIONAL REPORTS    NEVADA/IDAHO/WYOMING

CITY           SKY/WX    TMP DP  RH WIND       PRES   REMARKS
LAS VEGAS, NV  MOSUNNY   93  46  19 SW13G24   29.69F
ELY            MOSUNNY   77  23  13 S31G45    29.86F
ELKO           MOSUNNY   76  27  16 SW14      29.74F
POCATELLO, ID  MOSUNNY   77  42  28 N7        29.76F
BURLEY         PTSUNNY   74  44  34 VRB5      29.73F
EVANSTON, WY   MOSUNNY   79  23  12 SW33G46   29.94F
ROCK SPRINGS   SUNNY     76  36  23 S26G37    29.97F
KEMMERER       MOSUNNY  N/A N/A N/A S28G35    29.97F

$$



USA.gov is the U.S. government's official web portal to all federal, state and local government web resources and services.